Weather in Podlesnoye

Russia / Stavropol Krai     45°45′05″N   42°06′32″E
temp.,
°C
wind,
m/s
gust,
m/s
humid.,
%
clouds,
%
prec.,
mm/h
press.,
hPa
HPBL,
m
13 may, thu
thu1300:00+12e36830 0.0 101483
03:00+11e35860 0.0 101363
06:00+11ese37800 0.0 1013138
09:00+19se45630 0.0 1014516
12:00+23ese44545 0.0 1014882
15:00+25e45495 0.0 10131072
18:00+23e366825 0.0 1013147
21:00+17ese4880100 0.0 1014124
14 may, fri
fri1400:00+16ese49720 0.0 1013121
03:00+15ese497292 0.0 1013122
06:00+15e49795 0.0 1013150
09:00+22ese57640 0.0 1012431
12:00+27ese45535 0.0 1011761
15:00+28ese56514 0.0 1011939
18:00+25ese49680 0.0 1010238
21:00+20ese457245 0.0 101156
15 may, sat
sat1500:00+17ese477618 0.0 1011107
03:00+16ese347448 0.0 101157
06:00+17sw128534 0.0 101274
09:00+23w44735 0.0 1013542
12:00+26nnw33580 0.0 1013838
15:00+27n33555 0.0 10121053
18:00+25n346828 0.0 1012132
21:00+20nnw2275100 0.0 101213
16 may, sun
sun1600:00+19ne2272100 0.0 101117
03:00+18e2273100 0.0 101027
06:00+16e476531 0.0 1011117
09:00+21e56565 0.0 1010406
12:00+25ese67475 0.0 1009848
15:00+28ese69465 0.0 10071223
18:00+25e4115724 0.0 1006285
21:00+20e6165382 0.0 1007322
17 may, mon
mon1700:00+18e61450100 0.0 1006352
03:00+16e5135477 0.0 1006305
06:00+15e51268100 0.0 1006275
09:00+20ese6958100 0.0 1006491
12:00+26ese674979 0.0 1006846
15:00+28se46445 0.0 10051192
18:00+25wsw2264100 0.0 100619
21:00+21w358284 0.0 100888